Vernal, UT

6:41 PM MDT on March 30, 2017 (GMT -0600)
Vernal

Weather History for KVEL - January, 2013

Change the Weather History Date:

Tuesday, January 1, 2013

  Actual Average Record
Temperature  
Mean Temperature 0 °F 19 °F  
Max Temperature 9 °F 28 °F 49 °F (1940)
Min Temperature -9 °F 10 °F -27 °F (1952)
Degree Days  
Heating Degree Days 65 46  
Month to date heating degree days 65 46  
Since 1 July heating degree days 2753 3017  
Cooling Degree Days 0 0  
Month to date cooling degree days 0 0  
Year to date cooling degree days 0 0  
Moisture  
Dew Point -4 °F    
Average Humidity 86    
Maximum Humidity 95    
Minimum Humidity 76    
Precipitation  
Precipitation T in 0.02 in 0.58 in (1934)
Month to date precipitation T 0.02  
Year to date precipitation T 0.02  
Sea Level Pressure  
Sea Level Pressure 30.52 in    
Wind  
Wind Speed 2 mph (ESE)    
Max Wind Speed 7 mph    
Max Gust Speed 13 mph    
Visibility 6 miles    
Events      
T = Trace of Precipitation, MM = Missing Value Source: NWS Daily Summary

Daily Weather History Graph

Daily Weather History Graph

Search for Another Location

Airport or City:

Trip Planner

Search our weather history database for the weather conditions in past years. The results will help you decide how hot, cold, wet, or windy it might be!

Date:

Astronomy

Jan. 01, 2013 Rise Set
Actual Time 7:41 AM MST 5:02 PM MST
Civil Twilight 7:10 AM MST 5:33 PM MST
Nautical Twilight 6:36 AM MST 6:07 PM MST
Astronomical Twilight 6:03 AM MST 6:40 PM MST
Moon 9:37 PM MST (1/1) 9:54 AM MST (1/1)
Length of Visible Light 10h 22m
Length of Day
9h 21m
Waning Gibbous, 83% of the Moon is Illuminated
Jan 1
Waning Gibbous
Jan 4
Last Quarter
Jan 11
New
Jan 18
First Quarter
Jan 26
Full

Hourly Weather History & Observations

Time (MST) Temp. Windchill Dew Point Humidity Pressure Visibility Wind Dir Wind Speed Gust Speed Precip Events Conditions
12:53 AM -2.0 °F -10.1 °F -6.0 °F 83% 30.43 in 6.0 mi West 3.5 mph - N/A   Clear
1:53 AM -0.0 °F -11.6 °F -4.0 °F 83% 30.42 in 7.0 mi SW 5.8 mph - N/A   Clear
2:53 AM -0.9 °F - -6.0 °F 79% 30.43 in 7.0 mi Calm Calm - N/A   Clear
4:53 AM 1.0 °F - -2.9 °F 83% 30.47 in 6.0 mi Calm Calm - N/A   Overcast
5:53 AM -0.9 °F -8.9 °F -5.1 °F 83% 30.50 in 7.0 mi SW 3.5 mph - N/A   Mostly Cloudy
7:53 AM -6.0 °F - -9.9 °F 83% 30.61 in 6.0 mi Calm Calm - N/A   Clear
8:53 AM -4.0 °F - -8.0 °F 83% 30.62 in 5.0 mi Calm Calm - N/A   Clear
9:23 AM -2.2 °F -12.5 °F -5.8 °F 85% 30.30 in 2.0 mi Variable 4.6 mph - N/A   Mostly Cloudy
9:30 AM -2.2 °F -10.4 °F -5.8 °F 85% 30.31 in 1.0 mi East 3.5 mph - 0.00 in   Mostly Cloudy
9:35 AM -2.2 °F -10.4 °F -5.8 °F 85% 30.31 in 2.5 mi East 3.5 mph - 0.00 in   Overcast
9:42 AM -2.2 °F -10.4 °F -5.8 °F 85% 30.31 in 5.0 mi East 3.5 mph - 0.00 in   Overcast
9:53 AM -2.0 °F - -4.0 °F 91% 30.64 in 4.0 mi Calm Calm - 0.00 in   Overcast
9:55 AM -0.4 °F - -2.2 °F 92% 30.32 in 4.0 mi Calm Calm - N/A   Overcast
10:23 AM -0.4 °F - -2.2 °F 92% 30.32 in 5.0 mi Calm Calm - N/A   Scattered Clouds
10:53 AM 1.9 °F - -0.9 °F 88% 30.65 in 5.0 mi Calm Calm - N/A   Clear
11:53 AM 1.9 °F -9.2 °F -2.9 °F 80% 30.63 in 7.0 mi East 5.8 mph - N/A   Clear
12:53 PM 1.9 °F -5.6 °F -2.9 °F 80% 30.61 in 7.0 mi East 3.5 mph - N/A   Clear
1:53 PM 5.0 °F - -0.9 °F 76% 30.58 in 7.0 mi Calm Calm - N/A   Clear
3:53 PM 7.0 °F 0.1 °F -0.0 °F 73% 30.58 in 9.0 mi SSE 3.5 mph - N/A   Clear
4:53 PM 1.9 °F -7.6 °F -4.0 °F 76% 30.56 in 7.0 mi East 4.6 mph - N/A   Clear
5:53 PM -0.0 °F - -2.9 °F 88% 30.59 in 8.0 mi Calm Calm - N/A   Clear
6:53 PM -0.9 °F - -5.1 °F 83% 30.62 in 6.0 mi Calm Calm - N/A   Clear
7:53 PM 1.9 °F -9.2 °F -2.0 °F 83% 30.60 in 5.0 mi WNW 5.8 mph - N/A   Overcast
8:53 PM 3.0 °F -6.4 °F -2.0 °F 80% 30.61 in 6.0 mi SSW 4.6 mph - N/A   Haze
9:53 PM 1.0 °F -10.3 °F -4.0 °F 79% 30.64 in 6.0 mi East 5.8 mph - N/A   Haze
10:53 PM -2.0 °F - -6.0 °F 83% 30.66 in 7.0 mi Calm Calm - N/A   Partly Cloudy
11:53 PM -4.0 °F - -8.0 °F 83% 30.66 in 6.0 mi Calm Calm - N/A   Clear